Malaga, Spain

1:34 AM CEST on October 21, 2018 (GMT +0200)
Malaga

Weather History for LEMG - April, 2018

Change the Weather History Date:

Monday, April 16, 2018

  Actual Average Record
Temperature  
Mean Temperature 64 °F -  
Max Temperature 72 °F 72 °F 79 °F (2016)
Min Temperature 55 °F 54 °F 44 °F (2009)
Degree Days  
Heating Degree Days 2    
Growing Degree Days 14 (Base 50)    
Moisture  
Dew Point 48 °F    
Average Humidity 57    
Maximum Humidity 94    
Minimum Humidity 22    
Precipitation  
Precipitation 0.00 in 0.04 in - ()
Sea Level Pressure  
Sea Level Pressure 30.09 in    
Wind  
Wind Speed 10 mph ()    
Max Wind Speed 22 mph    
Max Gust Speed 30 mph    
Visibility 8.2 miles    
Events      
Averages and records for this station are not official NWS values.
T = Trace of Precipitation, MM = Missing Value Source: Averaged Metar Reports

Daily Weather History Graph

Daily Weather History Graph

Search for Another Location

Airport or City:

Astronomy

Apr. 16, 2018 Rise Set
Actual Time 7:42 AM CEST 8:53 PM CEST
Civil Twilight 7:16 AM CEST 9:19 PM CEST
Nautical Twilight 6:44 AM CEST 9:51 PM CEST
Astronomical Twilight 6:11 AM CEST 10:24 PM CEST
Moon 8:15 AM CEST (4/16) 9:26 PM CEST (4/16)
Length of Visible Light 14h 03m
Length of Day
13h 10m
New Moon, 0% of the Moon is Illuminated
Apr 16
New Moon
Apr 22
First Quarter
Apr 30
Full
May 8
Last Quarter
May 15
New

Hourly Weather History & Observations

Time (CEST) Temp. Dew Point Humidity Pressure Visibility Wind Dir Wind Speed Gust Speed Precip Events Conditions
12:00 AM 64 °F 53 °F 57% 30.08 in - WNW 6.9 mph - -  
12:00 AM 60.8 °F 53.6 °F 77% 30.06 in 6.2 mi WNW 5.8 mph - N/A   Partly Cloudy
12:30 AM 62.6 °F 51.8 °F 68% 30.06 in 6.2 mi West 5.8 mph - N/A   Partly Cloudy
1:00 AM 57.2 °F 53.6 °F 88% 30.06 in 6.2 mi Variable 2.3 mph - N/A   Partly Cloudy
1:30 AM 57.2 °F 53.6 °F 88% 30.06 in 6.2 mi WNW 2.3 mph - N/A   Partly Cloudy
2:00 AM 61 °F 53 °F 67% 30.07 in 9 mi SW 2.3 mph - -   Scattered Clouds
2:00 AM 60.8 °F 53.6 °F 77% 30.06 in 6.2 mi Variable 1.2 mph - N/A   Partly Cloudy
2:30 AM 59.0 °F 53.6 °F 82% 30.06 in 6.2 mi Variable 1.2 mph - N/A   Partly Cloudy
3:00 AM 57.2 °F 53.6 °F 88% 30.04 in 6.2 mi WNW 1.2 mph - N/A   Partly Cloudy
3:30 AM 57.2 °F 53.6 °F 88% 30.04 in 6.2 mi West 2.3 mph - N/A   Partly Cloudy
4:00 AM 58 °F 53 °F 79% 30.05 in - WNW 4.6 mph - -  
4:00 AM 55.4 °F 53.6 °F 94% 30.04 in 6.2 mi WNW 4.6 mph - N/A   Partly Cloudy
4:30 AM 57.2 °F 53.6 °F 88% 30.06 in 6.2 mi West 8.1 mph - N/A   Scattered Clouds
5:00 AM 60.8 °F 51.8 °F 72% 30.06 in 6.2 mi West 13.8 mph - N/A   Mostly Cloudy
5:30 AM 59.0 °F 51.8 °F 77% 30.06 in 6.2 mi WNW 9.2 mph - N/A   Mostly Cloudy
6:00 AM 58 °F 46 °F 56% 30.08 in - WNW 16.1 mph - -  
6:00 AM 57.2 °F 46.4 °F 67% 30.06 in 6.2 mi WNW 16.1 mph - N/A   Mostly Cloudy
6:30 AM 57.2 °F 46.4 °F 67% 30.06 in 6.2 mi West 15.0 mph - N/A   Mostly Cloudy
7:00 AM 56 °F 46 °F 61% 30.09 in - West 8.1 mph - -  
7:00 AM 55.4 °F 46.4 °F 72% 30.09 in 6.2 mi West 9.2 mph - N/A   Partly Cloudy
7:30 AM 55.4 °F 46.4 °F 72% 30.09 in 6.2 mi WNW 10.4 mph - N/A   Partly Cloudy
8:00 AM 55 °F 46 °F 62% 30.10 in 19 mi West 15.0 mph - -   Scattered Clouds
8:00 AM 55.4 °F 46.4 °F 72% 30.09 in 6.2 mi WNW 13.8 mph - N/A   Partly Cloudy
8:30 AM 55.4 °F 44.6 °F 67% 30.09 in 6.2 mi West 13.8 mph - N/A   Partly Cloudy
9:00 AM 58 °F 46 °F 56% 30.12 in 19 mi WNW 15.0 mph - -   Scattered Clouds
9:00 AM 57.2 °F 46.4 °F 67% 30.09 in 6.2 mi WNW 12.7 mph - N/A   Partly Cloudy
9:30 AM 57.2 °F 46.4 °F 67% 30.12 in 6.2 mi WNW 18.4 mph 29.9 mph N/A   Partly Cloudy
10:00 AM 60 °F 47 °F 51% 30.13 in - WNW 16.1 mph - -  
10:00 AM 59.0 °F 48.2 °F 67% 30.12 in 6.2 mi WNW 13.8 mph 25.3 mph N/A   Partly Cloudy
10:30 AM 59.0 °F 46.4 °F 63% 30.12 in 6.2 mi WNW 17.3 mph 28.8 mph N/A   Partly Cloudy
11:00 AM 62 °F 45 °F 43% 30.14 in 19 mi WNW 17.3 mph - -   Scattered Clouds
11:00 AM 60.8 °F 46.4 °F 59% 30.12 in 6.2 mi WNW 17.3 mph 28.8 mph N/A   Partly Cloudy
11:30 AM 60.8 °F 46.4 °F 59% 30.12 in 6.2 mi NW 15.0 mph 27.6 mph N/A   Partly Cloudy
12:00 PM 62.6 °F 48.2 °F 59% 30.12 in 6.2 mi WNW 18.4 mph - N/A   Partly Cloudy
12:30 PM 62.6 °F 48.2 °F 59% 30.12 in 6.2 mi NW 21.9 mph - N/A   Partly Cloudy
1:00 PM 64.4 °F 48.2 °F 56% 30.12 in 6.2 mi WNW 20.7 mph - N/A   Partly Cloudy
1:30 PM 64.4 °F 48.2 °F 56% 30.12 in 6.2 mi WNW 18.4 mph - N/A   Partly Cloudy
2:00 PM 67 °F 44 °F 32% 30.12 in 19 mi WNW 19.6 mph - -   Scattered Clouds
2:00 PM 66.2 °F 48.2 °F 52% 30.12 in 6.2 mi NW 18.4 mph - N/A   Partly Cloudy
2:30 PM 66.2 °F 46.4 °F 49% 30.12 in 6.2 mi NW 18.4 mph - N/A   Partly Cloudy
3:00 PM 69 °F 45 °F 30% 30.11 in 19 mi WNW 17.3 mph - -   Scattered Clouds
3:00 PM 68.0 °F 48.2 °F 49% 30.09 in 6.2 mi WNW 17.3 mph - N/A   Partly Cloudy
3:30 PM 68.0 °F 48.2 °F 49% 30.09 in 6.2 mi NW 17.3 mph - N/A   Partly Cloudy
4:00 PM 70 °F 44 °F 28% 30.10 in - NW 16.1 mph - -  
4:00 PM 68.0 °F 48.2 °F 49% 30.09 in 6.2 mi NW 16.1 mph - N/A   Partly Cloudy
4:30 PM 69.8 °F 46.4 °F 43% 30.09 in 6.2 mi NW 15.0 mph - N/A   Partly Cloudy
5:00 PM 72 °F 44 °F 25% 30.09 in 19 mi WNW 15.0 mph - -   Clear
5:00 PM 69.8 °F 48.2 °F 46% 30.09 in - NW 13.8 mph - N/A   Clear
5:30 PM 69.8 °F 44.6 °F 40% 30.06 in - NW 15.0 mph - N/A   Clear
6:00 PM 72 °F 41 °F 22% 30.09 in - NW 16.1 mph - -  
6:00 PM 69.8 °F 42.8 °F 38% 30.06 in - NW 15.0 mph - N/A   Clear
6:30 PM 68.0 °F 42.8 °F 40% 30.09 in - NW 15.0 mph - N/A   Clear
7:00 PM 71 °F 43 °F 25% 30.09 in - NW 19.6 mph - -  
7:00 PM 68.0 °F 44.6 °F 43% 30.09 in - NNW 18.4 mph - N/A   Clear
7:30 PM 68.0 °F 42.8 °F 40% 30.09 in - NW 21.9 mph - N/A   Clear
8:00 PM 69 °F 45 °F 30% 30.10 in 12 mi WNW 20.7 mph - -   Clear
8:00 PM 66.2 °F 44.6 °F 46% 30.09 in - WNW 19.6 mph - N/A   Clear
8:30 PM 64.4 °F 44.6 °F 49% 30.09 in - NW 18.4 mph - N/A   Clear
9:00 PM 66 °F 45 °F 36% 30.11 in - WNW 17.3 mph - -  
9:00 PM 62.6 °F 44.6 °F 52% 30.09 in - WNW 16.1 mph - N/A   Clear
9:30 PM 62.6 °F 46.4 °F 55% 30.12 in - West 13.8 mph - N/A   Clear
10:00 PM 62.6 °F 46.4 °F 55% 30.12 in - West 16.1 mph - N/A   Clear
10:30 PM 62.6 °F 46.4 °F 55% 30.12 in - West 18.4 mph - N/A   Clear
11:00 PM 62.6 °F 46.4 °F 55% 30.12 in - West 20.7 mph - N/A   Clear
11:30 PM 62.6 °F 44.6 °F 52% 30.12 in - West 21.9 mph - N/A   Clear